Tracking 32139 objects as of 18-Nov-2025
HD Live streaming from Space Station
objects crossing your sky now

STARLINK-34784

Track STARLINK-34784 now!
10-day predictions
STARLINK-34784 is classified as:


NORAD ID: 65458
Int'l Code: 2025-195A
Perigee: 453.6 km
Apogee: 455.3 km
Inclination: 53.2 °
Period: 93.5 minutes
Semi major axis: 6825 km
RCS: Unknown
Launch date: September 3, 2025
Source: United States (US)
Launch site: AIR FORCE EASTERN TEST RANGE (AFETR)
Your satellite tracking list
Your tracking list is empty




NASA's NSSDC Master Catalog

Two Line Element Set (TLE):
1 65458U 25195A   25321.63919433  .00049395  00000-0  12382-2 0  9999
2 65458  53.1598  58.9807 0001218  90.0127 270.1018 15.39586829 12838
Source of the keplerian elements: AFSPC